Weather History for KCPS - January, 2014

Change the Weather History Date:

Saturday, January 18, 2014

  Actual Average Record
Temperature  
Mean Temperature 28 °F -  
Max Temperature 43 °F 30 °F 70 °F (1951)
Min Temperature 12 °F 17 °F 2 °F (1943)
Degree Days  
Heating Degree Days 38    
Moisture  
Dew Point 22 °F    
Average Humidity 72    
Maximum Humidity 88    
Minimum Humidity 41    
Precipitation  
Precipitation 0.02 in - - ()
Sea Level Pressure  
Sea Level Pressure 29.86 in    
Wind  
Wind Speed 8 mph (WSW)    
Max Wind Speed 25 mph    
Max Gust Speed 32 mph    
Visibility 10 miles    
Events Rain , Snow    
Averages and records for this station are not official NWS values.
T = Trace of Precipitation, MM = Missing Value Source: NWS Daily Summary

Daily Weather History Graph

Daily Weather History Graph

Search for Another Location

Airport or City:

Trip Planner

Search our weather history database for the weather conditions in past years. The results will help you decide how hot, cold, wet, or windy it might be!

Date:

Astronomy

Jan. 18, 2014 Rise Set
Actual Time 7:15 AM CST 5:06 PM CST
Civil Twilight 6:46 AM CST 5:35 PM CST
Nautical Twilight 6:14 AM CST 6:08 PM CST
Astronomical Twilight 5:42 AM CST 6:39 PM CST
Moon 7:46 PM CST (1/18) 8:17 AM CST (1/18)
Length of Visible Light 10h 49m
Length of Day
9h 51m
Waning Gibbous, 94% of the Moon is Illuminated
Jan 18
Waning Gibbous
Jan 23
Last Quarter
Jan 30
New
Feb 6
First Quarter
Feb 14
Full

Hourly Weather History & Observations

Time (CST) Temp. Windchill Dew Point Humidity Pressure Visibility Wind Dir Wind Speed Gust Speed Precip Events Conditions
12:53 AM 17.1 °F 10.0 °F 10.0 °F 74% 30.11 in 10.0 mi WSW 4.6 mph - N/A   Clear
1:53 AM 14.0 °F - 10.9 °F 88% 30.09 in 10.0 mi Calm Calm - N/A   Clear
2:53 AM 15.1 °F - 9.0 °F 77% 30.07 in 10.0 mi Calm Calm - N/A   Clear
3:53 AM 12.9 °F - 10.0 °F 88% 30.05 in 10.0 mi Calm Calm - N/A   Clear
4:53 AM 19.0 °F 12.3 °F 12.0 °F 74% 30.02 in 10.0 mi SSE 4.6 mph - N/A   Overcast
5:53 AM 21.9 °F 15.7 °F 12.9 °F 68% 29.99 in 10.0 mi South 4.6 mph - N/A   Overcast
6:53 AM 23.0 °F 13.1 °F 12.9 °F 65% 29.94 in 10.0 mi SSE 9.2 mph - N/A   Overcast
7:53 AM 24.1 °F 12.5 °F 12.0 °F 60% 29.88 in 10.0 mi SSE 12.7 mph 18.4 mph N/A   Overcast
8:53 AM 26.1 °F 16.2 °F 10.9 °F 53% 29.82 in 10.0 mi SSE 10.4 mph - N/A   Overcast
9:53 AM 28.9 °F 21.1 °F 10.0 °F 45% 29.78 in 10.0 mi South 8.1 mph 21.9 mph N/A   Overcast
10:53 AM 34.0 °F 27.2 °F 15.1 °F 46% 29.74 in 10.0 mi South 8.1 mph - N/A   Overcast
11:53 AM 37.9 °F 32.7 °F 16.0 °F 41% 29.70 in 10.0 mi Variable 6.9 mph - N/A   Overcast
12:53 PM 39.0 °F 32.3 °F 21.0 °F 49% 29.70 in 10.0 mi West 10.4 mph - N/A   Overcast
1:16 PM 35.6 °F 28.0 °F 30.2 °F 81% 29.68 in 9.0 mi West 10.4 mph 24.2 mph 0.00 in Snow Light Snow
1:27 PM 35.6 °F 29.2 °F 32.0 °F 87% 29.68 in 9.0 mi WSW 8.1 mph - 0.00 in   Overcast
1:53 PM 37.9 °F 30.9 °F 33.1 °F 83% 29.70 in 10.0 mi WSW 10.4 mph 17.3 mph 0.00 in   Overcast
2:53 PM 41.0 °F 34.7 °F 32.0 °F 70% 29.70 in 10.0 mi WSW 10.4 mph 18.4 mph N/A   Overcast
3:53 PM 43.0 °F 39.5 °F 30.9 °F 62% 29.71 in 10.0 mi SW 5.8 mph - N/A   Overcast
4:53 PM 41.0 °F 33.9 °F 33.1 °F 73% 29.76 in 10.0 mi West 12.7 mph 24.2 mph 0.00 in Rain Light Rain
5:53 PM 39.0 °F 29.6 °F 35.1 °F 86% 29.79 in 9.0 mi WNW 18.4 mph 31.1 mph 0.01 in Rain Light Rain
6:03 PM 39.2 °F 31.2 °F 33.8 °F 81% 29.78 in 10.0 mi West 13.8 mph 23.0 mph 0.00 in Rain Light Rain
6:53 PM 37.9 °F 30.9 °F 30.9 °F 76% 29.82 in 10.0 mi West 10.4 mph 23.0 mph 0.00 in   Overcast
7:53 PM 36.0 °F 25.3 °F 30.9 °F 82% 29.86 in 7.0 mi WNW 19.6 mph 27.6 mph 0.01 in Rain Rain
8:53 PM 35.1 °F 23.8 °F 30.0 °F 82% 29.88 in 10.0 mi WNW 20.7 mph 28.8 mph 0.00 in   Overcast
9:53 PM 34.0 °F 23.0 °F 30.0 °F 85% 29.92 in 10.0 mi WNW 18.4 mph 24.2 mph N/A   Overcast
10:45 PM 32.0 °F 18.6 °F 26.6 °F 80% 29.95 in 10.0 mi NW 25.3 mph 32.2 mph N/A   Overcast
10:53 PM 32.0 °F 18.6 °F 26.1 °F 79% 29.96 in 10.0 mi NW 25.3 mph 31.1 mph N/A   Overcast
11:53 PM 30.0 °F 18.7 °F 23.0 °F 75% 29.99 in 10.0 mi NW 16.1 mph - N/A   Overcast